Location: Passo di Treia
(43.2833°N, 13.3333°E)
Time: 04:24:47
(UTC+00:00)

Centaur D-1A AC-31 - Visible Passes

Search period start: 02 April 2020 00:00
Search period end: 12 April 2020 00:00
Orbit: 575 x 36366 km, 27.2° (Epoch: 29 March)

Date Brightness Start Highest point End Pass type
(mag) Time Alt. Az. Time Alt. Az. Time Alt. Az.
02 Apr 5.9 22:44:19 10° SSW 23:29:28 10° SSW 05:32:13 10° ESE visible
03 Apr 6.3 19:29:54 10° SSE 02:48:22 39° S 03:05:41 10° ESE visible
04 Apr 6.8 19:28:31 10° SE 23:53:23 30° SSE 00:34:34 10° ESE visible
05 Apr 7.6 20:42:00 11° SE 21:03:02 11° ESE 21:28:20 10° ESE visible
07 Apr 6.0 20:40:42 10° S 23:29:50 14° SSW 04:37:37 10° ESE visible
08 Apr 6.3 19:00:52 10° SSE 01:48:00 39° SSE 02:10:26 10° ESE visible
09 Apr 7.0 19:13:01 10° SE 22:49:39 27° SE 23:36:59 10° ESE visible
